Location: Newark
(32.2136°N, 35.2820°E)
Time: 06:02:08
(UTC+00:00)

OTV 5 (USA 277) - Visible Passes

Search period start: 22 September 2019 00:00
Search period end: 02 October 2019 00:00
Orbit: 295 x 339 km, 54.5° (Epoch: 08 September)

Date Brightness Start Highest point End Pass type
(mag) Time Alt. Az. Time Alt. Az. Time Alt. Az.
28 Sep ? 02:52:11 10° S 02:54:31 23° SE 02:56:51 10° ENE visible
29 Sep ? 03:06:07 10° SW 03:08:57 90° NW 03:11:47 10° NE visible
30 Sep ? 01:48:32 12° SE 01:49:26 13° ESE 01:50:51 10° E visible
01 Oct ? 02:03:35 42° SE 02:03:48 43° SE 02:06:32 10° NE visible
